STARLINK-36732

Last updated on Sun Mar 15 2026 00:02:07 GMT+0000 (Coordinated Universal Time)

1 67813U 26032S 26073.48386245 .00228934 00000+0 14919-2 0 9999 2 67813 97.2837 260.2895 0000243 10.8364 349.2907 15.75236411 5549
UTC large
Height (km)
Speed (km/s)
/
Latitude / Longitude
Inclination (degrees)
Orbital Period (minutes)
Azimuth
Elevation
Range (km)
Doppler Factor

Next 0 passes for location: London (51.5072 / 0.1276)

Sorry there are no passes over London.